User: anonymous
Location: Bonny Doon Airfield
(37.0704°N, 122.1252°W)
Time: 01:07:09
(UTC-07:00)
Language:

BREEZE M DEB (TANK) - Orbit

View from above orbital plane
View from above orbital plane
View from above satellite
View from above satellite

Ground track
Ground track

The orbit data is extracted from the following two-line orbital elements,

1 33437U 08057B   14107.10400402  .00004065  00000-0  90955-3 0   148
2 33437 049.5451 151.1115 5026238 318.5165 020.3055 05.54972116109241
Epoch (UTC): 17 April 2014 02:29:45
Eccentricity: 0.5026238
inclination: 49.5451°
perigee height: 324 km
apogee height: 13871 km
right ascension of ascending node: 151.1115°
argument of perigee: 318.5165°
revolutions per day: 5.54972116
mean anomaly at epoch: 20.3055°
orbit number at epoch: 10924

The dashed part of the orbit path shows where the satellite is in the earth's shadow,  

DLR